Location: Bu�n Treun
(12.1333°N, 108.3167°E)
Time: 22:31:28
(UTC+00:00)

Hubble Space Telescope - Visible Passes

Search period start: 20 June 2021 00:00
Search period end: 30 June 2021 00:00
Orbit: 535 x 539 km, 28.5° (Epoch: 20 June)

Date Brightness Start Highest point End Pass type
(mag) Time Alt. Az. Time Alt. Az. Time Alt. Az.
20 Jun 0.8 11:58:57 10° WNW 12:03:02 71° NNE 12:05:56 19° ESE visible
20 Jun 3.7 13:41:04 10° WSW 13:41:14 11° WSW 13:41:14 11° WSW visible
21 Jun 0.7 11:47:59 10° WNW 11:52:06 84° SSW 11:55:37 14° ESE visible
21 Jun 3.7 13:30:52 10° WSW 13:30:56 10° WSW 13:30:56 10° WSW visible
22 Jun 1.1 11:37:05 10° WNW 11:41:08 59° SSW 11:45:11 10° SE visible
29 Jun 3.2 20:41:25 12° SSE 20:41:25 12° SSE 20:42:59 10° SE visible
